Regional Weather Roundup
Issued by NWS Cleveland, OH

Home | Current Version | Previous Version | Graphics & Text | Print | Product List | Glossary On
Versions: 1 2 3 4 5 6 7 8 9 10 11 12 13 14 15 16 17 18 19 20 21 22 23 24 25 26 27 28 29 30 31 32 33 34 35 36 37 38 39 40 41 42 43 44 45 46 47 48 49 50
000
ASUS41 KCLE 220602
RWRCLE
OHIO REGIONAL WEATHER ROUNDUP
NATIONAL WEATHER SERVICE CLEVELAND, OH
100 AM EST SAT NOV 22 2014

NOTE: "FAIR" INDICATES FEW OR NO CLOUDS BELOW 12,000 FEET WITH NO
SIGNIFICANT WEATHER AND/OR OBSTRUCTIONS TO VISIBILITY.

OHZ001>008-015>018-024>027-034-035-043-044-220700-
   NORTHWEST OHIO

CITY           SKY/WX    TMP DP  RH WIND       PRES   REMARKS
DEFIANCE       PTCLDY    21  11  65 S8        30.31F WCI  11
FINDLAY        PTCLDY    19  10  68 S7        30.33F WCI  10
TOLEDO EXPRESS PTCLDY    18  10  71 S3        30.32F
TOLEDO EXEC    MOCLDY    17  10  74 S6        30.34F WCI   9
LIMA           PTCLDY    22  11  62 S12       30.32F WCI  10
$$

OHZ009>014-019>023-028>033-038-089-220700-
   NORTHEAST OHIO

CITY           SKY/WX    TMP DP  RH WIND       PRES   REMARKS
CLE-HOPKINS    PTCLDY    17   7  64 S8        30.40F WCI   7
CLE-LAKEFRONT  PTCLDY    22   9  57 S12       30.37F WCI  10
CUY CO. ARPT   NOT AVBL
LORAIN-ELYRIA  PTCLDY    19   9  65 S12       30.37F WCI   7
ASHTABULA      PTCLDY    16   6  65 S8        30.39F WCI   5
AKRON-CANTON   PTCLDY    17   8  67 S8        30.38S WCI   7
WOOSTER        PTCLDY    14   6  70 S3        30.37F
MANSFIELD      PTCLDY    22  10  60 S13       30.34F WCI  10
YOUNGSTOWN     PTCLDY    18   7  62 S7        30.39R WCI   9
$$

OHZ042-051>053-060>062-070>072-077>081-220700-
  SOUTHWEST OHIO

CITY           SKY/WX    TMP DP  RH WIND       PRES   REMARKS
CINC-COVINGTON MOCLDY    30  13  49 SE10      30.35F WCI  21
CINC-LUNKEN    MOCLDY    20  16  84 CALM      30.40F
HAMILTON       PTCLDY    23  15  71 E8        30.36F WCI  14
DAYTON         PTCLDY    21  13  71 SE8       30.34F WCI  11
WRIGHT-PAT AFB PTCLDY    21  10  62 SE2       30.36F
DAYTON GENERAL MOCLDY    28  12  51 S13       30.34F WCI  17
WILMINGTON     PTCLDY    23   9  55 S7        30.36F WCI  15
$$

OHZ036-037-039>041-045>050-054>059-063>069-073>076-082>088-220700-
  CENTRAL AND SOUTHEAST OHIO

CITY           SKY/WX    TMP DP  RH WIND       PRES   REMARKS
COLUMBUS       PTCLDY    23   8  52 SE5       30.39F WCI  17
OSU AIRPORT    PTCLDY    21   9  59 SE6       30.37F WCI  13
BOLTON FIELD   NOT AVBL
RICKENBACK AFB NOT AVBL
NEWARK         PTCLDY    10   5  80 CALM      30.39F
MARION         PTCLDY    19   8  62 S10       30.35F WCI   7
LANCASTER      PTCLDY    16  10  77 SE6       30.39F WCI   7
ZANESVILLE     PTCLDY    15   9  76 CALM      30.41F
NEW PHILLY     PTCLDY    13   9  84 SE6       30.43S WCI   4
$$



USA.gov is the U.S. government's official web portal to all federal, state and local government web resources and services.